• Processing (Info)

  • MPEC 2020-F43 : 2020 FK1

    The following Minor Planet Electronic Circular may be linked-to from your own Web pages, but must not otherwise be redistributed electronically.

    A form allowing access to any MPEC is at the bottom of this page.


    Read MPEC 2020-F42 Read MPEC 2020-F44


    M.P.E.C. 2020-F43                                Issued 2020 March 18, 10:44 UT
    
         The Minor Planet Electronic Circulars contain information on unusual
             minor planets and routine data on comets.  They are published
        on behalf of Division F of the International Astronomical Union by the
              Minor Planet Center, Smithsonian Astrophysical Observatory,
                              Cambridge, MA 02138, U.S.A.
    
                 Prepared using the Tamkin Foundation Computer Network
    
                                  MPC@CFA.HARVARD.EDU
                URL https://www.minorplanetcenter.net/    ISSN 1523-6714
    
                                    2020 FK1                                 
    
    
    Observations:
         K20F01K* C2020 03 17.15109 07 30 31.81 +56 31 10.8                VEF043G96
         K20F01K  C2020 03 17.15632 07 30 49.35 +56 35 06.3          18.4 GVEF043G96
         K20F01K  C2020 03 17.16155 07 31 07.04 +56 39 00.5                VEF043G96
         K20F01K  C2020 03 17.16677 07 31 24.61 +56 42 52.8                VEF043G96
         K20F01K  C2020 03 17.20579 07 33 36.76 +57 10 39.3          19.2 GVEF043G96
         K20F01K  C2020 03 17.20593 07 33 37.30 +57 10 45.1          19.5 GVEF043G96
         K20F01K  C2020 03 17.20602 07 33 37.61 +57 10 49.2          19.1 GVEF043G96
         K20F01K  C2020 03 17.20612 07 33 38.01 +57 10 53.0          19.0 GVEF043G96
         K20F01K  C2020 03 17.20698 07 33 40.86 +57 11 28.5          18.6 GVEF043I52
         K20F01K  C2020 03 17.20723 07 33 41.75 +57 11 38.6          18.1 GVEF043I52
         K20F01K  C2020 03 17.20747 07 33 42.56 +57 11 48.4          18.3 GVEF043I52
         K20F01K  C2020 03 17.23027 07 35 01.20 +57 27 08.7          19.2 GVEF043I52
         K20F01K  C2020 03 17.23046 07 35 01.86 +57 27 16.4          19.0 GVEF043I52
         K20F01K  C2020 03 17.23083 07 35 03.20 +57 27 31.1          19.2 GVEF043I52
         K20F01K KC2020 03 17.76195508 12 49.68 +62 23 19.6          19.1 GVEF043L01
         K20F01K KC2020 03 17.76341608 12 54.43 +62 23 59.6          19.1 GVEF043L01
         K20F01K KC2020 03 17.76509708 12 59.92 +62 24 45.8          19.3 GVEF043L01
         K20F01K  C2020 03 17.77035 08 13 16.97 +62 25 18.0          19.2 VVEF043033
         K20F01K  C2020 03 17.77087 08 13 18.67 +62 25 31.9          19.3 VVEF043033
         K20F01K KC2020 03 17.77127 08 13 18.11 +62 25 53.6          19.6 GVEF043113
         K20F01K  C2020 03 17.77138 08 13 20.36 +62 25 45.9          19.5 VVEF043033
         K20F01K KC2020 03 17.77389 08 13 26.73 +62 27 03.6          19.3 GVEF043113
         K20F01K KC2020 03 17.77688 08 13 36.65 +62 28 24.4          19.4 GVEF043113
         K20F01K KC2020 03 17.77958 08 13 45.55 +62 29 36.4                VEF043113
         K20F01K KC2020 03 17.79206 08 14 07.72 +62 36 26.1          19.5 VtEF043L04
         K20F01K KC2020 03 17.79218 08 14 26.02 +62 35 25.6          18.4 RVEF043K61
         K20F01K KC2020 03 17.79290 08 14 28.50 +62 35 44.5          18.4 RVEF043K61
         K20F01K KC2020 03 17.79471 08 14 34.31 +62 36 30.9          18.5 RVEF043K61
         K20F01K KC2020 03 17.79624 08 14 39.32 +62 37 10.8          18.8 RVEF043K61
         K20F01K KC2020 03 17.79665 08 14 22.43 +62 38 21.3          19.6 VtEF043L04
         K20F01K KC2020 03 17.80280 08 14 42.13 +62 40 55.2          19.8 VtEF043L04
         K20F01K KC2020 03 17.83262 08 16 43.59 +62 52 20.5          19.2 GVEF043K87
         K20F01K KC2020 03 17.85690 08 18 01.98 +63 01 59.0          19.8 GVEF043K87
         K20F01K KC2020 03 17.86460 08 18 27.06 +63 06 17.5          19.0 GVEF043203
         K20F01K KC2020 03 17.87426 08 18 57.95 +63 08 38.6          19.2 GVEF043K87
         K20F01K KC2020 03 17.87696 08 19 06.38 +63 10 58.2          18.7 GVEF043203
         K20F01K  C2020 03 17.88130 08 19 18.92 +63 10 50.0          19.2 VVEF043033
         K20F01K  C2020 03 17.88187 08 19 20.78 +63 11 02.6          19.1 VVEF043033
         K20F01K  C2020 03 17.88244 08 19 22.66 +63 11 15.4          18.9 VVEF043033
         K20F01K KC2020 03 17.88321 08 19 26.78 +63 13 11.7                VEF043204
         K20F01K KC2020 03 17.88832 08 19 42.52 +63 15 09.1          19.0 GVEF043203
         K20F01K KC2020 03 17.88989 08 19 48.05 +63 15 39.0                VEF043204
         K20F01K KC2020 03 17.89612 08 20 07.95 +63 17 54.1          19.1 GVEF043204
         K20F01K KC2020 03 17.90027 08 20 37.02 +63 20 20.0          19.4 VqEF043I93
         K20F01K KC2020 03 17.90669 08 20 57.22 +63 22 40.0          19.4 VqEF043I93
         K20F01K KC2020 03 17.91133 08 20 52.00 +63 23 37.0          20.2 GVEF043K63
         K20F01K KC2020 03 17.91234 08 21 15.02 +63 24 42.0          19.5 VqEF043I93
         K20F01K KC2020 03 17.91382 08 21 00.04 +63 24 29.4          19.1 GVEF043K63
         K20F01K KC2020 03 17.91830 08 21 14.52 +63 25 59.8          20.4 GVEF043K63
         K20F01K KC2020 03 18.05913308 31 38.48 +64 18 05.3          18.9 VuEF043H21
         K20F01K KC2020 03 18.06117508 31 44.63 +64 18 48.5          19.0 VuEF043H21
         K20F01K KC2020 03 18.06321608 31 50.74 +64 19 31.0          18.9 VuEF043H21
         K20F01K  C2020 03 18.13824 08 36 21.49 +64 45 21.0          19.9 GVEF043I52
         K20F01K  C2020 03 18.14190 08 36 31.16 +64 46 31.6          18.7 GVEF043I52
         K20F01K  C2020 03 18.16033 08 35 42.55 +64 34 05.7          20.0 VVEF043033
         K20F01K  C2020 03 18.16095 08 35 44.98 +64 34 15.3          19.9 VVEF043033
         K20F01K  C2020 03 18.16158 08 35 47.41 +64 34 25.0          19.6 VVEF043033
         K20F01K  C2020 03 18.16233 08 35 50.32 +64 34 36.5          19.3 VVEF043033
    
    Observer details:
    033 Karl Schwarzschild Observatory, Tautenburg.  Observers U. Laux, S. Melnikov,
        B. Stecklum.  Measurer B. Stecklum.  1.34-m f/3 Schmidt + CCD.
    113 Volkssternwarte Drebach, Schoenbrunn.  Observer G. Lehmann.  0.5-m f/4.6 
       reflector + CCD.
    203 GiaGa Observatory.  Observers S. Foglia, G. Galli.  Measurer G. Galli.  
        0.36-m f/5.76 Schmidt-Cassegrain + CCD.
    204 Schiaparelli Observatory.  Observer L. Buzzi.  0.84-m f/3.5 reflector + CCD.
    G96 Mt. Lemmon Survey.  Observer D. Rankin.  Measurers E. J. Christensen, G. A. 
       Farneth, D. C. Fuls, A. R. Gibbs, A. D. Grauer, H. Groeller, R. A. Kowalski, 
       S. M. Larson, G. J. Leonard, T. A. Pruyne, D. Rankin, R. L. Seaman, F. C. 
       Shelly, K. W. Wierzchos.  1.5-m reflector + 10K CCD.
    H21 Astronomical Research Observatory, Westfield.  Observer R. Holmes.  
        Measurers S. Foglia, L. Buzzi, T. Linder, R. Holmes.  0.81-m f/4.0 
       astrograph + CCD.
    I52 Steward Observatory, Mt. Lemmon Station.  Observer H. Groeller.  Measurers 
       E. J. Christensen, G. A. Farneth, D. C. Fuls, A. R. Gibbs, A. D. Grauer, H. 
       Groeller, R. A. Kowalski, S. M. Larson, G. J. Leonard, T. A. Pruyne, D. 
       Rankin, R. L. Seaman, F. C. Shelly, K. W. Wierzchos.  1.0-m reflector + CCD.
    I93 St Pardon de Conques.  Observer F. Losse.  0.40-m f/3.7 reflector + CCD.
    K61 Rokycany Observatory.  Observer M. Adamovsky.  0.51-m f/6.8 reflector + CCD.
    K63 G. Pascoli Observatory, Castelvecchio Pascoli.  Observer R. Bacci.  0.4-m 
       f/3.2 Newtonian reflector + CCD.
    K87 Dettelbach Vineyard Observatory.  Observer B. Haeusler.  0.3-m f/5.7 
       Schmidt-Cassegrain + CCD.
    L01 Visnjan Observatory, Tican.  Observer K. Korlevic.  1.0-m f/2.9 reflector + 
       CCD.
    L04 ROASTERR-1 Observatory, Cluj-Napoca.  Observer L. Hudin.  0.3-m f/5 
       reflector + CCD.
    
    Orbital elements:
    2020 FK1                                                 Earth MOID = 0.0002 AU
    Epoch 2020 May 31.0 TT = JDT 2459000.5                  Veres
    M 197.21442              (2000.0)            P               Q
    n   1.06204756     Peri.  235.05441     +0.64060343     -0.76775370
    a   0.9514225      Node   175.04408     +0.74552587     +0.61766351
    e   0.0899664      Incl.    8.97179     +0.18389784     +0.17042901
    P   0.93           H   27.4           G   0.15           U   6
    Residuals in seconds of arc
    200317 G96  0.0   0.2+    200317 033  0.3-  0.0     200317 203  0.3+  0.2-
    200317 G96  0.3-  0.6-    200317 113  0.2+  0.2+    200317 204  0.3-  0.0
    200317 G96  0.5+  0.6-    200317 113  0.6+  0.8+    200317 204  0.2-  0.2-
    200317 G96  0.5+  0.1+    200317 113  0.6+  0.7+    200317 I93  0.3+  0.1+
    200317 G96  0.6-  0.0     200317 L04  0.5+  0.4+    200317 I93  0.3+  0.1+
    200317 G96  0.1-  0.0     200317 K61  0.7-  0.4-    200317 K63  0.7-  0.1-
    200317 G96  0.1-  0.4+    200317 K61  0.2+  0.2-    200317 I93  0.2+  0.3+
    200317 G96  0.4+  0.1+    200317 K61  0.5-  0.8-    200317 K63  0.3-  0.7+
    200317 I52  0.4-  0.1+    200317 K61  0.3-  0.4-    200317 K63  0.4+  1.0-
    200317 I52  0.1-  0.1-    200317 L04  0.1+  0.2-    200318 H21  0.3-  0.5+
    200317 I52  0.2-  0.1-    200317 L04  0.4-  0.1+    200318 H21  0.1-  0.4+
    200317 I52  0.0   0.0     200317 K87  0.3+  1.0-    200318 H21  0.0   0.1-
    200317 I52  0.0   0.2+    200317 K87  0.5+  1.4-    200318 I52 (2.8+  0.1+)
    200317 I52  0.4+  0.2+    200317 203  0.3-  0.1-    200318 I52 (2.1-  0.6-)
    200317 L01  0.1-  0.2+    200317 K87  0.0   0.2+    200318 033  0.0   0.0
    200317 L01  0.1-  0.1+    200317 203  0.3+  0.4+    200318 033  0.1+  0.0
    200317 L01  0.1+  0.2+    200317 033  0.1-  0.1-    200318 033  0.1+  0.1+
    200317 033  0.2-  0.1+    200317 033  0.1-  0.1-    200318 033  0.1+  0.1+
    200317 033  0.3-  0.1-    200317 033  0.1+  0.0
    200317 113  0.5+  0.8+    200317 204  0.2-  0.4-
    
    Ephemeris:
    2020 FK1                 a,e,i = 0.95, 0.09, 9                   q = 0.8658
    Date    TT    R. A. (2000) Decl.     Delta      r    Elong.  Phase     V
    2020 02 17    00 46 52.3 -66 23 23   0.07908 0.9520    60.9   114.9    26.3
    ...
    2020 03 03    01 31 59.3 -66 24 04   0.03656 0.9766    65.3   112.7    24.5
    ...
    2020 03 11    02 48 46.0 -59 57 52   0.01357 0.9884    68.2   111.1    22.3
    ...
    2020 03 17    07 20 04.9 +54 16 57   0.0060450.9965   104.4    75.3    18.9
    2020 03 18    08 27 17.5 +63 51 11   0.0085380.9978   107.0    72.5    19.6
    2020 03 19    09 22 43.0 +67 42 32   0.01125 0.9991   107.9    71.4    20.2
    ...
    2020 03 25    11 40 05.5 +70 05 25   0.02839 1.0064   107.8    70.6    22.2
    ...
    2020 04 02    12 21 27.6 +68 52 16   0.05132 1.0150   106.1    71.1    23.5
    ...
    2020 04 17    12 44 33.1 +66 29 19   0.09226 1.0276   102.4    72.6    24.8
    
    A. U. Tomatic                (C) Copyright 2020 MPC           M.P.E.C. 2020-F43
    


    Read MPEC 2020-F42 Read MPEC 2020-F44


    MPEC number:

    Enter an MPEC number in one of the following forms:

    • 1997-B01 (the full form)
    • J97B01 (the packed version of the full form)
    • B01 (the abbreviated form)